Wind_Speed
79 80 81 81 81 81 81 77 74 73 77 77 80 80 80 81 84 91 95 98 101 105 111 113 117 122 124 130 135 137 140 141 141 130 131 131 129 126 124 126 125 128 125
80 81 82 83 82 84 81 77 77 79 81 82 82 83 88 91 94 98 101 105 109 113 118 120 125 131 135 139 142 144 143 143 140 129 120 123 123 119 116 113 112 116 119
83 84 85 87 87 85 81 79 81 84 85 85 87 92 96 98 101 106 110 114 117 119 123 127 132 139 145 147 145 143 141 134 127 122 110 107 107 107 106 104 104 107 111
88 89 90 89 89 85 82 83 85 88 91 91 95 99 103 106 110 114 118 122 122 126 131 139 142 148 147 144 141 134 127 121 116 112 105 98 99 100 97 96 94 97 100
93 92 93 92 89 86 85 87 90 92 93 97 102 105 109 114 118 122 124 126 130 135 141 145 148 146 144 136 128 122 117 112 107 99 93 89 88 91 89 85 83 86 87
95 94 94 93 88 88 89 92 95 98 100 104 107 112 116 120 124 127 132 135 141 146 147 149 145 145 133 124 119 113 107 100 96 93 85 81 80 81 80 78 77 78 79
95 95 95 91 89 92 93 96 98 100 104 108 113 118 121 124 131 136 142 146 149 150 149 147 142 129 120 114 106 100 97 92 88 84 79 74 73 76 74 72 71 71 75
95 97 94 91 92 93 96 99 102 104 109 115 119 124 125 132 138 143 148 151 151 147 145 139 125 118 111 102 94 91 86 82 81 76 72 69 69 70 68 67 66 65 67
97 95 93 94 94 96 100 102 106 110 116 122 125 127 134 139 145 151 152 150 146 145 135 123 114 104 97 91 87 82 77 75 72 67 64 62 63 64 64 63 63 57 62
95 94 95 95 97 101 104 108 112 117 121 124 130 136 140 144 152 153 151 144 138 127 119 110 99 91 85 82 78 74 67 65 65 63 60 57 56 57 58 57 58 54 56
94 96 98 99 102 105 108 113 117 122 126 130 135 141 147 154 151 147 140 137 122 112 103 94 87 82 76 71 70 67 62 59 60 59 55 53 51 49 51 53 51 50 51
98 99 101 104 107 111 115 119 125 128 131 137 142 148 152 151 146 140 136 123 111 98 87 79 76 71 66 64 63 62 58 55 54 54 51 49 46 44 45 46 46 47 48
100 103 105 108 112 116 120 123 129 134 138 143 149 150 149 142 136 128 117 108 96 84 76 73 67 64 60 58 57 56 55 53 51 49 47 44 41 41 40 41 41 42 44
103 106 110 113 118 121 126 131 135 140 145 149 149 147 139 133 125 112 103 91 82 75 71 65 61 59 56 53 53 53 52 50 48 46 43 40 37 36 36 36 37 36 40
108 111 116 119 122 128 133 138 142 147 149 145 144 135 128 122 109 98 88 78 72 67 63 60 58 56 53 52 51 50 49 47 44 42 39 36 34 33 33 33 33 33 36
114 117 121 125 131 135 138 143 147 152 150 144 131 125 115 102 92 83 75 68 63 58 57 56 54 52 51 49 49 47 45 43 41 38 35 32 30 29 29 29 29 29 31
119 124 127 133 137 141 145 148 148 145 138 127 120 107 97 86 80 70 65 59 54 53 53 52 50 48 48 47 44 43 41 40 38 35 31 28 25 26 26 24 25 25 25
127 131 136 140 144 146 148 141 133 123 119 115 101 91 82 74 66 62 56 52 49 49 49 47 46 46 46 45 41 38 36 36 35 33 30 27 24 23 23 22 22 22 22
134 138 141 143 143 138 132 122 118 114 102 96 89 80 70 63 58 53 49 47 47 47 45 43 42 42 41 41 39 35 33 32 31 31 29 26 23 22 22 22 20 19 19
139 141 141 141 133 128 118 116 108 95 91 82 75 67 60 56 51 44 43 42 41 41 40 40 40 39 37 37 36 34 32 30 28 27 26 24 22 21 21 20 19 18 18
140 138 133 130 118 112 108 98 90 82 76 69 62 57 53 49 45 41 40 39 38 37 37 37 37 36 34 33 32 31 30 28 26 24 23 22 20 18 18 18 17 16 17
130 128 118 108 104 99 90 83 76 70 63 57 53 50 45 42 41 39 38 37 36 35 35 34 34 35 34 32 30 29 28 26 25 23 21 20 18 17 15 15 15 15 15
111 104 102 98 90 83 76 70 64 59 53 50 46 42 40 38 37 36 35 34 33 32 31 31 31 31 31 30 28 27 25 24 23 22 21 19 16 15 14 13 12 13 14
99 95 89 82 75 69 65 59 54 50 47 43 39 37 36 35 34 34 33 32 31 30 29 29 29 29 28 28 27 25 24 22 22 20 19 18 16 14 12 11 10 11 12
85 79 72 67 63 58 53 49 47 43 39 37 36 35 33 33 32 32 31 30 30 28 28 27 26 26 26 25 25 23 22 21 20 19 18 17 15 13 11 11 10 10 10
67 63 60 55 51 48 46 43 39 37 35 34 33 32 31 30 30 30 30 29 28 27 26 25 25 24 24 24 24 23 21 20 19 18 18 16 14 13 11 10 9 9 9
Wind_Direction
286 289 291 292 293 294 295 294 294 293 294 294 296 297 297 296 294 296 297 297 298 298 298 299 300 300 300 299 297 296 294 292 292 289 286 284 282 279 275 271 269 265 261
286 289 292 291 293 294 294 293 293 292 293 296 296 297 297 297 298 298 298 299 300 301 302 303 302 301 299 298 297 297 294 293 293 291 287 284 282 279 275 272 267 264 261
286 289 291 292 294 293 291 291 292 294 295 296 297 297 299 298 297 298 300 302 303 303 304 302 302 301 301 299 297 297 296 295 293 291 288 284 280 276 272 268 264 261 259
287 288 290 291 292 290 289 291 292 294 296 295 296 298 299 299 300 301 302 303 303 303 303 304 303 302 301 300 299 298 296 294 291 290 287 284 280 276 272 267 264 260 256
286 287 288 291 289 288 289 291 293 295 295 296 298 299 300 301 302 303 303 304 304 304 304 305 303 302 303 302 300 298 296 293 292 290 287 284 279 276 273 270 265 261 256
285 285 286 288 287 288 289 292 294 295 296 297 299 300 302 302 303 303 305 305 306 306 306 305 304 304 302 302 299 298 296 294 293 290 287 284 279 276 273 269 264 259 256
283 283 286 286 287 288 291 293 295 295 296 298 299 301 302 303 304 305 306 307 308 307 305 304 305 304 303 302 301 298 296 295 292 289 286 283 279 275 272 268 263 258 253
281 283 284 285 287 290 292 293 294 296 298 299 300 302 303 303 305 306 308 309 308 306 306 307 305 305 303 302 299 297 296 294 291 290 287 282 278 274 271 267 263 258 253
280 282 283 285 289 291 292 293 295 298 299 299 302 303 304 304 307 308 309 307 306 308 307 306 306 304 302 301 300 299 299 294 292 289 285 281 278 274 270 267 263 259 254
279 281 284 287 288 291 292 294 296 298 300 302 303 304 304 305 306 309 307 307 308 308 307 306 305 304 303 301 301 299 298 296 295 292 289 284 279 275 272 267 264 258 254
279 281 284 287 290 292 293 295 297 298 301 302 303 304 305 308 308 306 307 309 307 308 308 306 305 304 303 301 300 301 302 299 296 294 290 286 282 277 273 268 263 258 252
280 284 287 288 291 293 294 297 298 299 300 302 303 305 308 308 305 307 308 308 308 308 307 305 304 304 304 304 305 304 305 303 299 297 293 288 284 279 273 269 264 258 252
284 286 288 290 292 294 296 297 298 300 301 302 305 308 309 307 308 309 308 308 309 309 308 307 307 307 308 308 307 308 308 307 304 300 295 291 286 281 275 271 266 257 253
286 288 289 291 293 294 295 297 298 299 302 305 308 308 306 308 309 308 309 309 309 310 309 309 310 310 310 311 311 310 308 308 307 303 300 296 289 282 275 270 264 256 250
287 289 290 292 293 294 296 297 299 302 305 307 307 306 308 309 309 308 308 310 310 310 310 311 312 312 315 316 314 312 310 310 309 307 304 299 294 285 277 269 265 259 251
288 289 291 291 293 295 297 298 302 304 305 305 305 307 308 308 307 307 308 309 310 309 310 311 312 316 318 317 315 313 312 312 311 311 309 306 298 288 280 274 269 262 253
288 289 291 292 293 295 299 302 304 304 305 305 305 307 307 307 307 307 309 309 308 309 311 312 315 318 318 318 316 314 313 313 313 313 313 310 302 290 283 278 270 261 252
288 290 291 294 297 300 302 305 305 304 304 305 306 306 306 306 307 308 309 309 311 310 310 313 317 319 318 318 317 314 314 314 314 314 315 313 308 297 288 280 273 265 256
290 292 295 298 300 303 304 303 302 303 305 306 305 305 306 306 307 309 308 310 311 310 312 315 318 318 318 317 317 316 316 316 315 315 315 314 308 300 291 285 281 271 260
292 295 298 300 302 301 301 301 302 302 305 304 304 304 305 306 307 306 306 308 306 308 311 316 319 319 321 320 320 320 319 319 317 316 315 312 308 302 296 289 282 273 262
296 299 299 299 299 299 301 301 302 303 302 302 302 303 304 305 305 307 308 308 307 310 313 316 318 321 324 325 323 323 321 319 319 317 315 313 308 301 298 292 284 272 262
297 298 297 297 299 301 300 301 301 301 301 301 301 303 303 303 303 305 306 307 309 311 314 316 318 321 324 327 327 326 324 323 322 321 319 317 312 306 299 292 285 275 263
297 296 297 298 299 299 300 300 300 300 300 301 302 301 300 300 301 304 305 305 308 310 311 314 316 318 321 325 327 328 326 326 327 325 323 319 315 310 303 295 284 274 262
295 296 297 297 298 299 299 299 298 299 300 300 299 298 299 299 301 303 304 306 308 311 314 315 316 318 320 324 327 330 331 332 331 329 328 324 319 313 307 298 285 272 262
294 295 296 297 298 297 297 297 298 298 298 298 297 298 298 299 300 302 304 308 311 313 314 317 316 317 318 321 327 330 333 333 334 334 333 333 328 323 312 301 287 275 267
294 295 295 295 296 296 297 297 296 297 297 297 298 297 297 299 301 303 306 309 309 312 315 317 317 318 320 324 326 328 331 334 338 339 337 336 335 329 323 314 298 283 272
Height
10624 10619 10615 10611 10606 10601 10595 10590 10586 10582 10577 10572 10567 10561 10554 10547 10540 10533 10525 10517 10509 10498 10486 10474 10462 10447 10437 10425 10410 10398 10385 10368 10358 10381 10364 10353 10342 10338 10340 10336 10341 10334 10345
10608 10603 10599 10594 10589 10583 10577 10573 10569 10564 10559 10554 10547 10540 10532 10525 10516 10506 10499 10490 10480 10468 10455 10441 10427 10410 10400 10382 10365 10350 10332 10320 10302 10301 10317 10301 10285 10279 10277 10279 10287 10287 10284
10591 10587 10582 10577 10572 10565 10560 10555 10551 10546 10540 10532 10525 10517 10509 10500 10490 10480 10470 10461 10449 10436 10422 10407 10393 10372 10357 10336 10317 10301 10282 10268 10255 10242 10252 10251 10235 10229 10228 10230 10236 10239 10240
10574 10569 10565 10560 10554 10548 10543 10538 10533 10527 10520 10511 10501 10493 10483 10472 10461 10450 10440 10429 10417 10403 10384 10366 10348 10328 10307 10288 10269 10253 10237 10223 10210 10200 10199 10204 10191 10182 10183 10187 10193 10197 10204
10556 10551 10546 10541 10535 10529 10526 10521 10514 10506 10498 10488 10478 10467 10455 10443 10429 10419 10408 10397 10380 10365 10348 10324 10301 10279 10259 10240 10222 10208 10190 10180 10170 10163 10161 10159 10154 10145 10143 10149 10156 10158 10165
10536 10531 10526 10521 10516 10512 10507 10501 10494 10485 10475 10464 10452 10440 10429 10414 10398 10383 10370 10361 10342 10321 10303 10277 10256 10237 10217 10199 10181 10167 10150 10141 10134 10125 10125 10122 10117 10112 10111 10114 10120 10126 10132
10516 10511 10506 10502 10498 10493 10487 10480 10471 10462 10451 10439 10426 10414 10402 10384 10366 10350 10333 10318 10300 10277 10254 10234 10217 10194 10176 10161 10146 10132 10119 10109 10099 10095 10093 10091 10088 10079 10082 10085 10088 10094 10096
10496 10491 10486 10483 10479 10473 10466 10458 10448 10438 10426 10413 10401 10387 10374 10354 10335 10316 10297 10278 10260 10238 10216 10194 10178 10161 10140 10128 10117 10103 10095 10084 10072 10068 10065 10061 10058 10053 10055 10056 10060 10066 10071
10476 10471 10468 10464 10460 10452 10443 10434 10423 10412 10400 10386 10373 10359 10343 10324 10301 10281 10262 10244 10224 10204 10182 10160 10147 10130 10112 10097 10088 10079 10070 10057 10049 10044 10040 10038 10033 10029 10029 10032 10035 10045 10046
10457 10452 10448 10444 10438 10430 10420 10409 10398 10385 10374 10360 10345 10327 10311 10294 10270 10248 10226 10209 10192 10174 10151 10133 10116 10103 10089 10075 10064 10054 10049 10038 10028 10022 10019 10016 10012 10010 10008 10010 10013 10022 10026
10437 10433 10428 10422 10416 10406 10396 10383 10372 10359 10346 10332 10319 10300 10281 10261 10240 10215 10195 10178 10159 10148 10127 10108 10091 10080 10069 10057 10043 10033 10027 10020 10009 10003 10000 9996 9994 9992 9989 9990 9994 9998 10002
10417 10413 10408 10400 10392 10381 10369 10357 10343 10331 10318 10303 10288 10269 10247 10226 10204 10187 10164 10144 10130 10118 10105 10088 10074 10062 10051 10039 10027 10016 10009 10001 9993 9986 9982 9979 9977 9976 9973 9973 9976 9980 9982
10398 10392 10386 10377 10365 10354 10343 10330 10316 10302 10289 10275 10257 10237 10214 10193 10175 10156 10136 10119 10106 10093 10080 10066 10056 10044 10034 10023 10013 10002 9993 9986 9978 9972 9968 9965 9963 9961 9960 9959 9961 9964 9967
10377 10370 10360 10350 10339 10327 10315 10302 10288 10273 10259 10244 10226 10204 10183 10164 10147 10128 10112 10098 10084 10071 10059 10049 10039 10029 10020 10012 10000 9990 9982 9975 9968 9961 9956 9954 9952 9949 9947 9947 9947 9951 9953
10353 10345 10335 10324 10313 10301 10287 10272 10257 10240 10227 10213 10195 10174 10156 10139 10121 10105 10092 10080 10067 10056 10045 10035 10026 10017 10006 9997 9988 9980 9972 9965 9958 9952 9947 9944 9941 9939 9937 9936 9937 9939 9943
10330 10320 10309 10297 10285 10273 10261 10246 10230 10211 10194 10178 10165 10149 10131 10117 10102 10089 10076 10065 10054 10044 10034 10025 10016 10006 9996 9988 9979 9971 9964 9956 9950 9945 9940 9936 9932 9930 9929 9928 9929 9931 9934
10303 10292 10283 10270 10257 10245 10233 10220 10204 10180 10161 10149 10139 10122 10109 10097 10084 10072 10062 10052 10043 10033 10023 10014 10006 9997 9988 9980 9972 9963 9956 9949 9943 9938 9934 9929 9926 9923 9921 9921 9921 9923 9924
10275 10265 10253 10241 10229 10217 10203 10188 10171 10157 10140 10119 10110 10103 10091 10079 10068 10057 10048 10040 10032 10024 10016 10006 9997 9989 9981 9973 9965 9957 9950 9943 9937 9932 9928 9924 9920 9917 9915 9914 9915 9916 9918
10247 10235 10225 10213 10199 10186 10173 10158 10145 10132 10117 10103 10089 10082 10072 10063 10053 10044 10037 10029 10022 10014 10006 9998 9990 9982 9975 9967 9959 9952 9944 9938 9932 9927 9923 9919 9915 9912 9910 9910 9910 9911 9912
10218 10208 10197 10184 10170 10158 10144 10133 10121 10108 10096 10084 10074 10063 10056 10049 10041 10036 10029 10022 10015 10007 9999 9991 9984 9976 9969 9961 9954 9946 9940 9934 9928 9923 9918 9915 9912 9909 9907 9906 9906 9906 9907
10191 10179 10166 10155 10143 10130 10119 10108 10097 10086 10078 10068 10059 10050 10043 10035 10029 10025 10019 10013 10007 9999 9992 9984 9977 9970 9963 9956 9949 9943 9936 9930 9924 9920 9915 9911 9908 9906 9904 9902 9902 9902 9903
10161 10150 10137 10127 10117 10107 10096 10086 10076 10068 10060 10052 10045 10038 10031 10026 10020 10016 10011 10005 9999 9991 9985 9979 9972 9965 9958 9952 9946 9939 9933 9927 9922 9917 9912 9908 9905 9903 9900 9899 9899 9899 9900
10131 10121 10112 10103 10094 10084 10075 10066 10059 10051 10045 10038 10032 10027 10022 10017 10012 10008 10003 9998 9992 9986 9980 9973 9967 9961 9955 9949 9943 9937 9931 9925 9919 9914 9910 9906 9903 9901 9898 9897 9896 9896 9896
10106 10097 10089 10080 10072 10064 10056 10050 10043 10037 10032 10027 10022 10018 10014 10010 10005 10001 9996 9991 9985 9980 9974 9968 9963 9957 9951 9945 9940 9935 9929 9923 9918 9913 9909 9905 9901 9899 9896 9895 9894 9893 9893
10084 10075 10067 10060 10053 10047 10041 10036 10031 10025 10021 10017 10013 10010 10007 10003 9998 9994 9989 9984 9979 9974 9969 9964 9958 9953 9948 9942 9937 9932 9927 9922 9917 9912 9908 9904 9901 9898 9895 9894 9892 9891 9891
10063 10056 10050 10044 10038 10034 10030 10025 10020 10016 10012 10009 10006 10003 10000 9996 9991 9987 9982 9978 9974 9969 9964 9959 9954 9949 9944 9939 9934 9930 9926 9921 9916 9911 9907 9903 9900 9897 9895 9893 9891 9890 9890